Joplin, MO

7:12 PM CDT on May 22, 2018 (GMT -0500)
Joplin Regional

Weather History for KJLN - March, 2012

Change the Weather History Date:

Monday, March 26, 2012

  Actual Average Record
Temperature  
Mean Temperature 67 °F 52 °F  
Max Temperature 82 °F 63 °F 86 °F (1910)
Min Temperature 52 °F 41 °F 10 °F (1955)
Degree Days  
Heating Degree Days 0 14  
Month to date heating degree days 214 445  
Since 1 July heating degree days 3128 3699  
Cooling Degree Days 2 0  
Month to date cooling degree days 42 0  
Year to date cooling degree days 42 1  
Growing Degree Days 17 (Base 50)    
Moisture  
Dew Point 52 °F    
Average Humidity 62    
Maximum Humidity 89    
Minimum Humidity 35    
Precipitation  
Precipitation 0.00 in 0.11 in 1.07 in (2011)
Month to date precipitation 6.29 2.79  
Year to date precipitation 9.03 7.14  
Snow  
Snow 0.00 in - - ()
Month to date snowfall T  
Snow Depth 0.00 in    
Sea Level Pressure  
Sea Level Pressure 30.02 in    
Wind  
Wind Speed 7 mph (SSE)    
Max Wind Speed 17 mph    
Max Gust Speed 23 mph    
Visibility 10 miles    
Events      
T = Trace of Precipitation, MM = Missing Value Source: NWS Daily Summary

Daily Weather History Graph

Daily Weather History Graph

Search for Another Location

Airport or City:

Astronomy

Mar. 26, 2012 Rise Set
Actual Time 7:11 AM CDT 7:35 PM CDT
Civil Twilight 6:45 AM CDT 8:01 PM CDT
Nautical Twilight 6:15 AM CDT 8:32 PM CDT
Astronomical Twilight 5:44 AM CDT 9:03 PM CDT
Moon 9:07 AM CDT (3/26) 11:40 PM CDT (3/26)
Length of Visible Light 13h 16m
Length of Day
12h 23m
Waxing Crescent, 15% of the Moon is Illuminated
Mar 26
Waxing Crescent
Mar 30
First Quarter
Apr 6
Full
Apr 13
Last Quarter
Apr 21
New

Hourly Weather History & Observations

Time (CDT) Temp. Heat Index Dew Point Humidity Pressure Visibility Wind Dir Wind Speed Gust Speed Precip Events Conditions
12:53 AM 54.0 °F - 50.0 °F 86% 30.03 in 7.0 mi SE 3.5 mph - N/A   Clear
1:53 AM 55.0 °F - 50.0 °F 83% 30.03 in 10.0 mi SE 3.5 mph - N/A   Clear
2:53 AM 55.9 °F - 48.9 °F 77% 30.03 in 10.0 mi SE 3.5 mph - N/A   Clear
3:53 AM 54.0 °F - 48.9 °F 83% 30.03 in 10.0 mi SE 3.5 mph - N/A   Clear
4:53 AM 57.0 °F - 48.9 °F 74% 30.02 in 10.0 mi SE 4.6 mph - N/A   Clear
5:53 AM 55.0 °F - 48.9 °F 80% 30.04 in 10.0 mi Calm Calm - N/A   Clear
6:53 AM 53.1 °F - 48.0 °F 83% 30.06 in 10.0 mi Calm Calm - N/A   Clear
7:53 AM 55.9 °F - 51.1 °F 84% 30.08 in 10.0 mi Calm Calm - N/A   Clear
8:53 AM 60.1 °F - 53.1 °F 78% 30.09 in 10.0 mi ESE 4.6 mph - N/A   Clear
9:53 AM 64.9 °F - 55.0 °F 70% 30.10 in 10.0 mi South 9.2 mph - N/A   Clear
10:53 AM 72.0 °F - 55.0 °F 55% 30.09 in 10.0 mi South 5.8 mph - N/A   Clear
11:53 AM 75.9 °F - 54.0 °F 46% 30.07 in 10.0 mi South 9.2 mph - N/A   Clear
12:53 PM 79.0 °F - 52.0 °F 39% 30.06 in 10.0 mi South 8.1 mph - N/A   Clear
1:53 PM 80.1 °F - 50.0 °F 35% 30.04 in 10.0 mi Variable 3.5 mph - N/A   Clear
2:53 PM 80.1 °F - 52.0 °F 38% 30.01 in 10.0 mi SW 8.1 mph 17.3 mph N/A   Clear
3:53 PM 81.0 °F - 52.0 °F 36% 29.99 in 10.0 mi South 8.1 mph 17.3 mph N/A   Clear
4:53 PM 80.1 °F 80.0 °F 54.0 °F 40% 29.97 in 10.0 mi South 11.5 mph - N/A   Clear
5:53 PM 79.0 °F - 54.0 °F 42% 29.96 in 10.0 mi South 11.5 mph - N/A   Clear
6:53 PM 75.9 °F - 54.0 °F 46% 29.96 in 10.0 mi South 10.4 mph - N/A   Clear
7:53 PM 70.0 °F - 53.1 °F 55% 29.97 in 10.0 mi South 8.1 mph - N/A   Clear
8:53 PM 68.0 °F - 53.1 °F 59% 29.97 in 10.0 mi South 8.1 mph - N/A   Clear
9:53 PM 69.1 °F - 52.0 °F 54% 29.98 in 10.0 mi South 9.2 mph - N/A   Clear
10:53 PM 70.0 °F - 53.1 °F 55% 29.95 in 10.0 mi SSE 11.5 mph - N/A   Clear
11:53 PM 69.1 °F - 53.1 °F 57% 29.94 in 10.0 mi South 12.7 mph - N/A   Clear